Track STARLINK-3952 now! 10-day predictions STARLINK-3952 is classified as:
1 52534U 22051B 22228.00001157 .00002261 00000-0 16015-3 0 9996 2 52534 53.2172 212.6421 0002273 48.6114 147.9331 15.08832985 15000